User: anonymous   Login
Location: Oshawa
(43.9000°N, 78.8670°W)
Time: 10:39:20
(UTC-04:00)
Language:

Thor Agena Rocket - Orbit

View from above orbital plane
View from above orbital plane
View from above satellite
View from above satellite

Ground track
Ground track

The orbit data is extracted from the following two-line orbital elements,

1 00733U 64002A   16180.04464425  .00000029  00000-0  28409-4 0  9998
2 00733  99.1019 341.4885 0034838 126.1448 234.2966 14.32219047731612
Epoch (UTC): 28 June 2016 01:04:17
Eccentricity: 0.0034838
inclination: 99.1019°
perigee height: 759 km
apogee height: 809 km
right ascension of ascending node: 341.4885°
argument of perigee: 126.1448°
revolutions per day: 14.32219047
mean anomaly at epoch: 234.2966°
orbit number at epoch: 73161

The dashed part of the orbit path shows where the satellite is in the earth's shadow,  

DLR